Darstellungsparameter: Aktuell verwendete Einstellungen:
Skalierung der Graphiken ... ?
xyx+y,   Skalierungsfaktor:      Skalierung: Modus: x, Faktor: 1
Darstellungszeitraum ... ?
Vom - - bis: - -   Zeitraum: 27.08.2019 - 26.08.2020
Min/Max/Avg-Anzeige ... ?
Zeige MMA aktuell
Zeige MMA Monat
Zeige MMA alles
Zeige --A aktuell
Zeige --A Monat
Zeige --A alles
Keine MMA-Anzeige
MMA:
Keine MMA-Graphiken
MMA-Basis: 27.08.2019 - 26.08.2020
Quicknavigation für Darstellung... ?
Tage:      1T, 2T, 3T, 5T -1T -2T -3T -5T +1T +2T +3T +5T
Wochen: 1W, 2W, 3W -1W -2W -3W +1W +2W +3W
Monate: 1M, 3M, 6M -1M -3M -6M +1M +3M +6M
Jahre:    1J, 3J, 5J, 10J -1J -3J -5J -10J +1J +3J +5J +10J
Nutze für die Darstellung ... ?
Originaldaten oder ...
Mittelwerte Minima Maxima auf...
Stundenbasis Tagesbasis Wochenbasis
Monatsbasis Jahresbasis      Datenbasis: Mittelwerte auf Tagesbasis
Darstellen als:
Statistik (Auto) Statistik J:M      Darstellung:
Zur Graphik,    zurück zur Übersicht aller Sensoren.
 
Tabellarische Datenbersicht: ?
 
Sensor: Nr:Datum:Temp:Feuchte:
Aussen-T/F 1 27-08-2019 00:00:00 22.70333 C 35.1667 %
2 28-08-2019 00:00:00 23.4425 C 30.4583 %
3 29-08-2019 00:00:00 22.20333 C 28.3583 %
4 30-08-2019 00:00:00 21.07 C 29.2583 %
5 31-08-2019 00:00:00 21.975 C 30.7583 %
6 01-09-2019 00:00:00 18.8525 C 26.8333 %
7 02-09-2019 00:00:00 15.49333 C 28.2000 %
8 03-09-2019 00:00:00 15.72917 C 28.0833 %
9 04-09-2019 00:00:00 16.9525 C 33.9667 %
10 05-09-2019 00:00:00 15.59 C 26.2917 %
11 06-09-2019 00:00:00 13.58917 C 31.1917 %
12 07-09-2019 00:00:00 12.6975 C 39.5000 %
13 08-09-2019 00:00:00 12.7439 C 48.5935 %
14 09-09-2019 00:00:00 15.23733 C 38.6667 %
15 10-09-2019 00:00:00 12.20486 C 22.8264 %
16 11-09-2019 00:00:00 13.35556 C 20.8472 %
17 12-09-2019 00:00:00 19.325 C 20.0000 %
18 13-09-2019 00:00:00 17.86806 C 20.1111 %
19 14-09-2019 00:00:00 15.93333 C 22.4375 %
20 15-09-2019 00:00:00 15.65694 C 21.2778 %
21 16-09-2019 00:00:00 16.21389 C 20.0000 %
22 17-09-2019 00:00:00 15.87708 C 20.0000 %
23 18-09-2019 00:00:00 11.47361 C 20.7917 %
24 19-09-2019 00:00:00 10.53333 C 21.8194 %
25 20-09-2019 00:00:00 10.80486 C 20.8472 %
Sensor: Nr:Datum:Temp:Feuchte:
Aussen-T/F 26 21-09-2019 00:00:00 12.45278 C 20.6597 %
27 22-09-2019 00:00:00 14.78542 C 20.7500 %
28 23-09-2019 00:00:00 16.6875 C 22.1528 %
29 24-09-2019 00:00:00 13.94306 C 26.6319 %
30 25-09-2019 00:00:00 15.31806 C 25.0417 %
31 26-09-2019 00:00:00 16.10903 C 26.0000 %
32 27-09-2019 00:00:00 16.23333 C 23.7708 %
33 28-09-2019 00:00:00 15.40208 C 22.5833 %
34 29-09-2019 00:00:00 16.05972 C 21.6597 %
35 30-09-2019 00:00:00 15.48194 C 21.1319 %
36 01-10-2019 00:00:00 15.84375 C 23.4931 %
37 02-10-2019 00:00:00 12.57569 C 23.6111 %
38 03-10-2019 00:00:00 9.35625 C 27.6944 %
39 04-10-2019 00:00:00 10.03681 C 31.8403 %
40 05-10-2019 00:00:00 10.32986 C 26.5903 %
41 06-10-2019 00:00:00 7.85764 C 34.1250 %
42 07-10-2019 00:00:00 9.80764 C 31.8819 %
43 08-10-2019 00:00:00 12.35833 C 31.0694 %
44 09-10-2019 00:00:00 11.56667 C 27.7431 %
45 10-10-2019 00:00:00 11.49097 C 26.2153 %
46 11-10-2019 00:00:00 12.41458 C 28.8194 %
47 12-10-2019 00:00:00 13.21111 C 29.6875 %
48 13-10-2019 00:00:00 16.35417 C 28.4722 %
49 14-10-2019 00:00:00 15.8125 C 27.6528 %
50 15-10-2019 00:00:00 13.94028 C 29.8611 %
Sensor: Nr:Datum:Temp:Feuchte:
Aussen-T/F 51 16-10-2019 00:00:00 12.42153 C 29.2917 %
52 17-10-2019 00:00:00 14.32708 C 27.4167 %
53 18-10-2019 00:00:00 12.3125 C 29.7292 %
54 19-10-2019 00:00:00 12.78194 C 28.2083 %
55 20-10-2019 00:00:00 13.0875 C 34.7778 %
56 21-10-2019 00:00:00 13.30486 C 29.2014 %
57 22-10-2019 00:00:00 11.45 C 27.8819 %
58 23-10-2019 00:00:00 10.68403 C 31.1181 %
59 24-10-2019 00:00:00 13.85208 C 27.9236 %
60 25-10-2019 00:00:00 13.1625 C 24.9444 %
61 26-10-2019 00:00:00 12.72639 C 27.5417 %
62 27-10-2019 00:00:00 9.68467 C 30.8733 %
63 28-10-2019 00:00:00 5.91597 C 35.2014 %
64 29-10-2019 00:00:00 6.21181 C 29.3264 %
65 30-10-2019 00:00:00 2.93333 C 34.5347 %
66 31-10-2019 00:00:00 1.41875 C 34.8333 %
67 01-11-2019 00:00:00 5.44792 C 36.7292 %
68 02-11-2019 00:00:00 12.8125 C 27.6458 %
69 03-11-2019 00:00:00 11.45069 C 29.7639 %
70 04-11-2019 00:00:00 9.88542 C 30.2153 %
71 05-11-2019 00:00:00 9.25069 C 27.4306 %
72 06-11-2019 00:00:00 8.33542 C 34.7014 %
73 07-11-2019 00:00:00 7.30278 C 33.8333 %
74 08-11-2019 00:00:00 4.29028 C 37.7153 %
75 09-11-2019 00:00:00 4.26806 C 33.1111 %
Sensor: Nr:Datum:Temp:Feuchte:
Aussen-T/F 76 10-11-2019 00:00:00 2.51319 C 34.9861 %
77 11-11-2019 00:00:00 4.2 C 27.4792 %
78 12-11-2019 00:00:00 5.41667 C 25.4792 %
79 13-11-2019 00:00:00 4.93472 C 22.9861 %
80 14-11-2019 00:00:00 4.86042 C 26.9861 %
81 15-11-2019 00:00:00 4.08472 C 26.3333 %
82 16-11-2019 00:00:00 1.19444 C 38.8125 %
83 17-11-2019 00:00:00 2.39861 C 40.2708 %
84 18-11-2019 00:00:00 3.51667 C 36.2847 %
85 19-11-2019 00:00:00 3.06736 C 36.5833 %
86 20-11-2019 00:00:00 0.75972 C 37.8403 %
87 21-11-2019 00:00:00 1.18951 C 39.3846 %
88 22-11-2019 00:00:00 3.65972 C 35.6806 %
89 23-11-2019 00:00:00 4.64653 C 33.3889 %
90 24-11-2019 00:00:00 1.99861 C 41.4722 %
91 25-11-2019 00:00:00 4.16319 C 39.3681 %
92 26-11-2019 00:00:00 7.75903 C 34.8472 %
93 27-11-2019 00:00:00 9.72083 C 30.6875 %
94 28-11-2019 00:00:00 10.55833 C 22.1319 %
95 29-11-2019 00:00:00 5.75486 C 30.7639 %
96 30-11-2019 00:00:00 0.48194 C 42.0972 %
97 01-12-2019 00:00:00 1.14236 C 33.0139 %
98 02-12-2019 00:00:00 1.20556 C 36.2986 %
99 03-12-2019 00:00:00 3.97431 C 39.2292 %
100 04-12-2019 00:00:00 0.41389 C 41.6111 %
Sensor: Nr:Datum:Temp:Feuchte:
Aussen-T/F 101 05-12-2019 00:00:00 -2.03194 C 42.0972 %
102 06-12-2019 00:00:00 2.6125 C 34.4722 %
103 07-12-2019 00:00:00 8.20694 C 27.7292 %
104 08-12-2019 00:00:00 9.69931 C 24.2778 %
105 09-12-2019 00:00:00 7.09444 C 23.9722 %
106 10-12-2019 00:00:00 2.37361 C 34.0000 %
107 11-12-2019 00:00:00 3.12569 C 39.3056 %
108 12-12-2019 00:00:00 2.64931 C 37.2500 %
109 13-12-2019 00:00:00 3.25278 C 34.0069 %
110 14-12-2019 00:00:00 6.22222 C 28.0625 %
111 15-12-2019 00:00:00 7.24792 C 30.8958 %
112 16-12-2019 00:00:00 7.47361 C 39.2986 %
113 17-12-2019 00:00:00 9.69514 C 31.9653 %
114 18-12-2019 00:00:00 6.95069 C 37.4792 %
115 19-12-2019 00:00:00 4.60972 C 40.5417 %
116 20-12-2019 00:00:00 6.87778 C 35.7847 %
117 21-12-2019 00:00:00 6.42778 C 32.4306 %
118 22-12-2019 00:00:00 7.57917 C 31.0556 %
119 23-12-2019 00:00:00 7.34861 C 28.6111 %
120 24-12-2019 00:00:00 7.20278 C 29.9097 %
121 25-12-2019 00:00:00 6.91944 C 32.8333 %
122 26-12-2019 00:00:00 4.25278 C 40.6250 %
123 27-12-2019 00:00:00 4.41181 C 36.8819 %
124 28-12-2019 00:00:00 -1.22431 C 42.5000 %
125 29-12-2019 00:00:00 -2.07708 C 39.8819 %
Sensor: Nr:Datum:Temp:Feuchte:
Aussen-T/F 126 30-12-2019 00:00:00 -1.99931 C 39.1319 %
127 31-12-2019 00:00:00 -0.41736 C 39.5556 %
128 01-01-2020 00:00:00 -0.10764 C 41.3403 %
129 02-01-2020 00:00:00 0.98958 C 39.7014 %
130 03-01-2020 00:00:00 7.00972 C 33.4653 %
131 04-01-2020 00:00:00 4.78264 C 32.5903 %
132 05-01-2020 00:00:00 5.21806 C 35.8750 %
133 06-01-2020 00:00:00 2.11667 C 38.1667 %
134 07-01-2020 00:00:00 4.43611 C 34.6944 %
135 08-01-2020 00:00:00 7.71389 C 34.4167 %
136 09-01-2020 00:00:00 10.33542 C 35.2292 %
137 10-01-2020 00:00:00 8.27917 C 30.8958 %
138 11-01-2020 00:00:00 3.61806 C 33.7639 %
139 12-01-2020 00:00:00 4.57083 C 30.3889 %
140 13-01-2020 00:00:00 5.88472 C 35.0903 %
141 14-01-2020 00:00:00 9.28264 C 24.1181 %
142 15-01-2020 00:00:00 10.27083 C 23.7500 %
143 16-01-2020 00:00:00 7.07569 C 40.1944 %
144 17-01-2020 00:00:00 5.27986 C 39.1944 %
145 18-01-2020 00:00:00 3.79028 C 32.6042 %
146 19-01-2020 00:00:00 3.01389 C 40.8194 %
147 20-01-2020 00:00:00 1.64861 C 39.3889 %
148 21-01-2020 00:00:00 -2.675 C 44.7986 %
149 22-01-2020 00:00:00 -1.95347 C 44.7153 %
150 23-01-2020 00:00:00 0.53819 C 43.6458 %
Sensor: Nr:Datum:Temp:Feuchte:
Aussen-T/F 151 24-01-2020 00:00:00 0.81319 C 35.7222 %
152 25-01-2020 00:00:00 1.99236 C 39.2014 %
153 26-01-2020 00:00:00 2.13056 C 41.5625 %
154 27-01-2020 00:00:00 5.48542 C 39.8264 %
155 28-01-2020 00:00:00 5.07708 C 30.3750 %
156 29-01-2020 00:00:00 4.20764 C 29.8611 %
157 30-01-2020 00:00:00 7.57569 C 29.5694 %
158 31-01-2020 00:00:00 12.86181 C 27.9167 %
159 01-02-2020 00:00:00 11.16597 C 32.0972 %
160 02-02-2020 00:00:00 9.925 C 31.1319 %
161 03-02-2020 00:00:00 10.19236 C 29.5139 %
162 04-02-2020 00:00:00 4.29514 C 36.4097 %
163 05-02-2020 00:00:00 3.05069 C 37.1458 %
164 06-02-2020 00:00:00 0.04514 C 42.7500 %
165 07-02-2020 00:00:00 -0.30764 C 42.8264 %
166 08-02-2020 00:00:00 1.01389 C 43.0069 %
167 09-02-2020 00:00:00 8.36458 C 32.5764 %
168 10-02-2020 00:00:00 7.85 C 31.3611 %
169 11-02-2020 00:00:00 5.29167 C 24.6597 %
170 12-02-2020 00:00:00 4.32083 C 30.5972 %
171 13-02-2020 00:00:00 3.32917 C 42.1250 %
172 14-02-2020 00:00:00 5.46458 C 39.2639 %
173 15-02-2020 00:00:00 5.89931 C 38.0278 %
174 16-02-2020 00:00:00 14.44931 C 23.2431 %
175 17-02-2020 00:00:00 8.25903 C 32.4167 %
Sensor: Nr:Datum:Temp:Feuchte:
Aussen-T/F 176 18-02-2020 00:00:00 6.89097 C 31.0347 %
177 19-02-2020 00:00:00 5.73889 C 30.1875 %
178 20-02-2020 00:00:00 7.7125 C 32.9722 %
179 21-02-2020 00:00:00 4.71042 C 33.5972 %
180 22-02-2020 00:00:00 7.67986 C 30.0347 %
181 23-02-2020 00:00:00 10.01389 C 35.3403 %
182 24-02-2020 00:00:00 7.74653 C 36.3194 %
183 25-02-2020 00:00:00 8.81597 C 32.2778 %
184 26-02-2020 00:00:00 4.37431 C 33.6806 %
185 27-02-2020 00:00:00 2.22153 C 41.6806 %
186 28-02-2020 00:00:00 3.52431 C 38.4514 %
187 29-02-2020 00:00:00 8.60556 C 34.8889 %
188 01-03-2020 00:00:00 7.15694 C 36.0000 %
189 02-03-2020 00:00:00 5.99375 C 40.1667 %
190 03-03-2020 00:00:00 4.26806 C 39.6458 %
191 04-03-2020 00:00:00 5.28958 C 37.5764 %
192 05-03-2020 00:00:00 5.45764 C 43.0833 %
193 06-03-2020 00:00:00 5.63958 C 40.4931 %
194 07-03-2020 00:00:00 6.26458 C 33.7569 %
195 08-03-2020 00:00:00 9.46458 C 32.2361 %
196 09-03-2020 00:00:00 7.81875 C 35.4514 %
197 10-03-2020 00:00:00 9.06181 C 39.4514 %
198 11-03-2020 00:00:00 14.0375 C 35.2639 %
199 12-03-2020 00:00:00 11.01597 C 30.3681 %
200 13-03-2020 00:00:00 6.99236 C 33.4236 %
Sensor: Nr:Datum:Temp:Feuchte:
Aussen-T/F 201 14-03-2020 00:00:00 5.89028 C 38.1667 %
202 15-03-2020 00:00:00 9.14653 C 32.2153 %
203 16-03-2020 00:00:00 9.43264 C 35.6667 %
204 17-03-2020 00:00:00 12.02708 C 33.7847 %
205 18-03-2020 00:00:00 9.92639 C 36.2153 %
206 19-03-2020 00:00:00 12.58194 C 32.0417 %
207 20-03-2020 00:00:00 10.52657 C 36.2308 %
208 21-03-2020 00:00:00 5.89653 C 34.6597 %
209 22-03-2020 00:00:00 4.30139 C 28.5278 %
210 23-03-2020 00:00:00 3.12292 C 27.0764 %
211 24-03-2020 00:00:00 2.82431 C 27.8403 %
212 25-03-2020 00:00:00 3.67014 C 25.0486 %
213 26-03-2020 00:00:00 5.25486 C 23.4931 %
214 27-03-2020 00:00:00 8.10139 C 29.8819 %
215 28-03-2020 00:00:00 9.69236 C 30.9306 %
216 29-03-2020 00:00:00 5.0942 C 30.1377 %
217 30-03-2020 00:00:00 2.89028 C 29.9167 %
218 31-03-2020 00:00:00 5.79792 C 30.1528 %
219 01-04-2020 00:00:00 4.16111 C 29.6944 %
220 02-04-2020 00:00:00 5.26806 C 31.1944 %
221 03-04-2020 00:00:00 7.93542 C 28.5069 %
222 04-04-2020 00:00:00 6.89375 C 31.8958 %
223 05-04-2020 00:00:00 9.74514 C 32.0625 %
224 06-04-2020 00:00:00 12.17708 C 29.7431 %
225 07-04-2020 00:00:00 14.2875 C 28.9028 %
Sensor: Nr:Datum:Temp:Feuchte:
Aussen-T/F 226 08-04-2020 00:00:00 15.02153 C 31.1528 %
227 09-04-2020 00:00:00 15.89514 C 27.6458 %
228 10-04-2020 00:00:00 14.80972 C 29.8333 %
229 11-04-2020 00:00:00 14.775 C 25.4861 %
230 12-04-2020 00:00:00 15.71319 C 27.3056 %
231 13-04-2020 00:00:00 9.43542 C 29.6944 %
232 14-04-2020 00:00:00 6.54583 C 28.1042 %
233 15-04-2020 00:00:00 9.17222 C 30.8750 %
234 16-04-2020 00:00:00 13.09792 C 29.6667 %
235 17-04-2020 00:00:00 15.68056 C 30.2500 %
236 18-04-2020 00:00:00 14.81597 C 32.5000 %
237 19-04-2020 00:00:00 13.35694 C 32.8889 %
238 20-04-2020 00:00:00 12.80069 C 22.9861 %
239 21-04-2020 00:00:00 13.68472 C 21.3889 %
240 22-04-2020 00:00:00 14.69375 C 23.2153 %
241 23-04-2020 00:00:00 14.90347 C 25.2917 %
242 24-04-2020 00:00:00 14.72361 C 27.0278 %
243 25-04-2020 00:00:00 13.03611 C 25.6597 %
244 26-04-2020 00:00:00 12.22917 C 31.0069 %
245 27-04-2020 00:00:00 13.17153 C 29.7431 %
246 28-04-2020 00:00:00 12.62153 C 36.5556 %
247 29-04-2020 00:00:00 14.57569 C 31.0903 %
248 30-04-2020 00:00:00 12.09722 C 36.4583 %
249 01-05-2020 00:00:00 10.66042 C 37.3542 %
250 02-05-2020 00:00:00 10.00764 C 36.3611 %
Sensor: Nr:Datum:Temp:Feuchte:
Aussen-T/F 251 03-05-2020 00:00:00 10.75833 C 34.4653 %
252 04-05-2020 00:00:00 11.74722 C 36.3681 %
253 05-05-2020 00:00:00 11.26667 C 32.2083 %
254 06-05-2020 00:00:00 11.08403 C 30.6181 %
255 07-05-2020 00:00:00 13.50764 C 30.8056 %
256 08-05-2020 00:00:00 15.85208 C 29.3056 %
257 09-05-2020 00:00:00 16.28611 C 29.0139 %
258 10-05-2020 00:00:00 15.97153 C 36.6389 %
259 11-05-2020 00:00:00 9.26875 C 32.4028 %
260 12-05-2020 00:00:00 8.55764 C 29.8264 %
261 13-05-2020 00:00:00 9.41528 C 30.4444 %
262 14-05-2020 00:00:00 9.74792 C 29.2917 %
263 15-05-2020 00:00:00 11.27986 C 28.5903 %
264 16-05-2020 00:00:00 11.95833 C 29.2986 %
265 17-05-2020 00:00:00 14.25556 C 28.0625 %
266 18-05-2020 00:00:00 16.81042 C 28.8681 %
267 19-05-2020 00:00:00 17.67986 C 29.2153 %
268 20-05-2020 00:00:00 18.90417 C 29.3611 %
269 21-05-2020 00:00:00 20.425 C 29.2361 %
270 22-05-2020 00:00:00 20.27222 C 29.9583 %
271 23-05-2020 00:00:00 13.65972 C 37.1111 %
272 24-05-2020 00:00:00 13.68056 C 31.3750 %
273 25-05-2020 00:00:00 16.41181 C 30.5625 %
274 26-05-2020 00:00:00 15.69306 C 31.7292 %
275 27-05-2020 00:00:00 18.09444 C 29.6597 %
Sensor: Nr:Datum:Temp:Feuchte:
Aussen-T/F 276 28-05-2020 00:00:00 18.81736 C 24.7153 %
277 29-05-2020 00:00:00 16.43681 C 26.8056 %
278 30-05-2020 00:00:00 16.61667 C 24.5000 %
279 31-05-2020 00:00:00 16.21736 C 26.2153 %
280 01-06-2020 00:00:00 19.27153 C 26.8889 %
281 02-06-2020 00:00:00 21.30486 C 25.6250 %
282 03-06-2020 00:00:00 21.06597 C 25.1042 %
283 04-06-2020 00:00:00 14.39583 C 39.8403 %
284 05-06-2020 00:00:00 11.4625 C 37.4306 %
285 06-06-2020 00:00:00 12.76111 C 34.0347 %
286 07-06-2020 00:00:00 13.84514 C 31.7083 %
287 08-06-2020 00:00:00 15.57014 C 31.2986 %
288 09-06-2020 00:00:00 14.49861 C 37.8333 %
289 10-06-2020 00:00:00 15.8625 C 35.7431 %
290 11-06-2020 00:00:00 15.99028 C 36.5486 %
291 12-06-2020 00:00:00 20.73403 C 31.5139 %
292 13-06-2020 00:00:00 21.73403 C 27.8889 %
293 14-06-2020 00:00:00 19.10208 C 32.2222 %
294 15-06-2020 00:00:00 19.14306 C 31.8264 %
295 16-06-2020 00:00:00 18.22986 C 36.8750 %
296 17-06-2020 00:00:00 18.10486 C 36.5347 %
297 18-06-2020 00:00:00 19.72569 C 31.4722 %
298 19-06-2020 00:00:00 17.11181 C 35.9028 %
299 20-06-2020 00:00:00 17.44514 C 34.6319 %
300 21-06-2020 00:00:00 20.65208 C 31.4097 %
Sensor: Nr:Datum:Temp:Feuchte:
Aussen-T/F 301 22-06-2020 00:00:00 20.03958 C 29.0347 %
302 23-06-2020 00:00:00 21.27708 C 29.8472 %
303 24-06-2020 00:00:00 22.32569 C 27.2222 %
304 25-06-2020 00:00:00 22.52222 C 26.3264 %
305 26-06-2020 00:00:00 23.33542 C 29.4306 %
306 27-06-2020 00:00:00 23.59236 C 27.9236 %
307 28-06-2020 00:00:00 20.15625 C 29.1181 %
308 29-06-2020 00:00:00 18.91667 C 29.3750 %
309 30-06-2020 00:00:00 17.63611 C 29.2500 %
310 01-07-2020 00:00:00 22.10764 C 27.2500 %
311 02-07-2020 00:00:00 19.35903 C 32.8611 %
312 03-07-2020 00:00:00 18.4375 C 30.9306 %
313 04-07-2020 00:00:00 19.56528 C 27.8056 %
314 05-07-2020 00:00:00 23.42222 C 26.5069 %
315 06-07-2020 00:00:00 16.97292 C 27.8264 %
316 07-07-2020 00:00:00 16.98611 C 30.0903 %
317 08-07-2020 00:00:00 15.99444 C 36.0486 %
318 09-07-2020 00:00:00 22.42361 C 30.2153 %
319 10-07-2020 00:00:00 18.77222 C 32.6042 %
320 11-07-2020 00:00:00 17.44167 C 29.9514 %
321 12-07-2020 00:00:00 18.36944 C 29.9792 %
322 13-07-2020 00:00:00 20.63333 C 27.9931 %
323 14-07-2020 00:00:00 19.57917 C 28.7153 %
324 15-07-2020 00:00:00 18.56806 C 29.6389 %
325 16-07-2020 00:00:00 16.03611 C 38.0625 %
Sensor: Nr:Datum:Temp:Feuchte:
Aussen-T/F 326 17-07-2020 00:00:00 19.64375 C 32.7222 %
327 18-07-2020 00:00:00 20.24406 C 31.3636 %
328 19-07-2020 00:00:00 23.3625 C 27.6597 %
329 20-07-2020 00:00:00 20.29931 C 28.6111 %
330 21-07-2020 00:00:00 18.99375 C 27.2083 %
331 22-07-2020 00:00:00 18.52222 C 28.8542 %
332 23-07-2020 00:00:00 20.38472 C 26.9306 %
333 24-07-2020 00:00:00 21.93889 C 24.3333 %
334 25-07-2020 00:00:00 21.73681 C 27.9583 %
335 26-07-2020 00:00:00 21.61944 C 29.2361 %
336 27-07-2020 00:00:00 22.74306 C 28.1181 %
337 28-07-2020 00:00:00 23.63681 C 22.2569 %
338 29-07-2020 00:00:00 20.21875 C 27.2083 %
339 30-07-2020 00:00:00 21.74306 C 27.3958 %
340 31-07-2020 00:00:00 25.38125 C 25.3056 %
341 01-08-2020 00:00:00 22.83611 C 31.0000 %
342 02-08-2020 00:00:00 22.3625 C 29.5694 %
343 03-08-2020 00:00:00 18.8125 C 30.2222 %
344 04-08-2020 00:00:00 20.01944 C 27.5139 %
345 05-08-2020 00:00:00 20.54444 C 28.1875 %
346 06-08-2020 00:00:00 22.82014 C 26.7500 %
347 07-08-2020 00:00:00 24.83819 C 26.9306 %
348 08-08-2020 00:00:00 27.23056 C 25.4722 %
349 09-08-2020 00:00:00 24.89722 C 26.9583 %
350 10-08-2020 00:00:00 26.58125 C 27.6319 %
Sensor: Nr:Datum:Temp:Feuchte:
Aussen-T/F 351 11-08-2020 00:00:00 26.57986 C 27.6944 %
352 12-08-2020 00:00:00 24.53194 C 33.3958 %
353 13-08-2020 00:00:00 24.15556 C 32.0694 %
354 14-08-2020 00:00:00 24.22639 C 29.9306 %
355 15-08-2020 00:00:00 22.52847 C 33.3611 %
356 16-08-2020 00:00:00 23.01608 C 33.3287 %
357 17-08-2020 00:00:00 22.00069 C 32.0694 %
358 18-08-2020 00:00:00 19.64722 C 33.6319 %
359 19-08-2020 00:00:00 19.99514 C 33.0764 %
360 20-08-2020 00:00:00 24.92847 C 30.1597 %
361 21-08-2020 00:00:00 25.70417 C 25.9653 %
362 22-08-2020 00:00:00 23.12222 C 26.7500 %
363 23-08-2020 00:00:00 19.60972 C 28.1042 %
364 24-08-2020 00:00:00 18.62986 C 28.9931 %
365 25-08-2020 00:00:00 19.32986 C 29.6458 %
366 26-08-2020 00:00:00 21.03819 C 23.8750 %
Sensor: Nr:Datum:Temp:Feuchte:
G-T/H 1 27-08-2019 00:00:00 21.31417 C 66.1667 %
2 28-08-2019 00:00:00 21.07 C 66.6583 %
3 29-08-2019 00:00:00 21.03417 C 66.8417 %
4 30-08-2019 00:00:00 20.6775 C 66.8917 %
5 31-08-2019 00:00:00 20.2775 C 66.5917 %
6 01-09-2019 00:00:00 20.59167 C 65.4167 %
7 02-09-2019 00:00:00 18.59583 C 51.3417 %
8 03-09-2019 00:00:00 16.5475 C 53.5583 %
9 04-09-2019 00:00:00 18.68667 C 56.9667 %
10 05-09-2019 00:00:00 18.34667 C 60.0000 %
11 06-09-2019 00:00:00 17.44333 C 56.1750 %
12 07-09-2019 00:00:00 17.36583 C 60.4417 %
13 08-09-2019 00:00:00 16.54309 C 65.9350 %
14 09-09-2019 00:00:00 16.06067 C 66.7333 %
15 10-09-2019 00:00:00 15.23333 C 63.6597 %
16 11-09-2019 00:00:00 15.74097 C 61.0833 %
17 12-09-2019 00:00:00 17.93194 C 67.6319 %
18 13-09-2019 00:00:00 18.68472 C 70.9653 %
19 14-09-2019 00:00:00 18.01181 C 65.5903 %
20 15-09-2019 00:00:00 17.60347 C 61.9722 %
21 16-09-2019 00:00:00 17.78264 C 60.7361 %
22 17-09-2019 00:00:00 17.67431 C 62.7083 %
23 18-09-2019 00:00:00 15.39444 C 57.2778 %
24 19-09-2019 00:00:00 14.12361 C 57.3125 %
25 20-09-2019 00:00:00 13.22639 C 59.3056 %
Sensor: Nr:Datum:Temp:Feuchte:
G-T/H 26 21-09-2019 00:00:00 15.10833 C 52.5278 %
27 22-09-2019 00:00:00 15.13194 C 59.2083 %
28 23-09-2019 00:00:00 16.27153 C 64.4028 %
29 24-09-2019 00:00:00 16.11528 C 66.2778 %
30 25-09-2019 00:00:00 16.20556 C 67.8681 %
31 26-09-2019 00:00:00 16.33542 C 69.4097 %
32 27-09-2019 00:00:00 16.76458 C 69.3611 %
33 28-09-2019 00:00:00 16.47083 C 68.9792 %
34 29-09-2019 00:00:00 16.41458 C 69.6528 %
35 30-09-2019 00:00:00 16.64236 C 66.7917 %
36 01-10-2019 00:00:00 16.54167 C 68.3542 %
37 02-10-2019 00:00:00 16.15694 C 67.3056 %
38 03-10-2019 00:00:00 14.67222 C 66.7361 %
39 04-10-2019 00:00:00 14.15556 C 70.1319 %
40 05-10-2019 00:00:00 14.31875 C 71.1667 %
41 06-10-2019 00:00:00 13.69306 C 70.7847 %
42 07-10-2019 00:00:00 13.58056 C 72.7153 %
43 08-10-2019 00:00:00 14.14097 C 74.1597 %
44 09-10-2019 00:00:00 14.23472 C 74.0486 %
45 10-10-2019 00:00:00 14.00139 C 74.0278 %
46 11-10-2019 00:00:00 13.98819 C 74.3333 %
47 12-10-2019 00:00:00 14.71181 C 71.7639 %
48 13-10-2019 00:00:00 15.13472 C 74.9097 %
49 14-10-2019 00:00:00 16.34722 C 74.3958 %
50 15-10-2019 00:00:00 15.98125 C 73.6597 %
Sensor: Nr:Datum:Temp:Feuchte:
G-T/H 51 16-10-2019 00:00:00 15.42708 C 73.2986 %
52 17-10-2019 00:00:00 15.28056 C 74.7292 %
53 18-10-2019 00:00:00 15.18681 C 74.6042 %
54 19-10-2019 00:00:00 14.72222 C 74.1944 %
55 20-10-2019 00:00:00 14.40278 C 81.1597 %
56 21-10-2019 00:00:00 14.60625 C 80.9028 %
57 22-10-2019 00:00:00 14.62153 C 77.5000 %
58 23-10-2019 00:00:00 14.00764 C 76.3542 %
59 24-10-2019 00:00:00 14.52986 C 78.0139 %
60 25-10-2019 00:00:00 15.10694 C 74.8681 %
61 26-10-2019 00:00:00 14.99028 C 74.2153 %
62 27-10-2019 00:00:00 14.43933 C 74.9333 %
63 28-10-2019 00:00:00 12.81389 C 71.1806 %
64 29-10-2019 00:00:00 12.35556 C 71.6389 %
65 30-10-2019 00:00:00 10.98611 C 65.8194 %
66 31-10-2019 00:00:00 9.49097 C 64.1736 %
67 01-11-2019 00:00:00 9.67014 C 69.2569 %
68 02-11-2019 00:00:00 12.01181 C 74.2222 %
69 03-11-2019 00:00:00 12.91806 C 75.4861 %
70 04-11-2019 00:00:00 12.97569 C 75.6250 %
71 05-11-2019 00:00:00 12.58194 C 75.9444 %
72 06-11-2019 00:00:00 12.33194 C 75.6528 %
73 07-11-2019 00:00:00 12.18403 C 75.3403 %
74 08-11-2019 00:00:00 11.13611 C 70.1181 %
75 09-11-2019 00:00:00 11.02014 C 69.0972 %
Sensor: Nr:Datum:Temp:Feuchte:
G-T/H 76 10-11-2019 00:00:00 9.95556 C 68.3056 %
77 11-11-2019 00:00:00 9.96458 C 71.2708 %
78 12-11-2019 00:00:00 10.11458 C 72.0972 %
79 13-11-2019 00:00:00 10.0125 C 72.4097 %
80 14-11-2019 00:00:00 9.73403 C 68.3958 %
81 15-11-2019 00:00:00 9.68819 C 69.4028 %
82 16-11-2019 00:00:00 9.6125 C 68.7083 %
83 17-11-2019 00:00:00 9.03819 C 69.9306 %
84 18-11-2019 00:00:00 9.47361 C 72.2500 %
85 19-11-2019 00:00:00 9.40903 C 72.0833 %
86 20-11-2019 00:00:00 8.93333 C 71.1181 %
87 21-11-2019 00:00:00 8.40559 C 70.8182 %
88 22-11-2019 00:00:00 8.70556 C 72.6736 %
89 23-11-2019 00:00:00 9.32569 C 73.0972 %
90 24-11-2019 00:00:00 9.08333 C 72.0764 %
91 25-11-2019 00:00:00 9.04375 C 73.5069 %
92 26-11-2019 00:00:00 9.85139 C 74.9375 %
93 27-11-2019 00:00:00 10.87847 C 75.9236 %
94 28-11-2019 00:00:00 11.51597 C 75.5069 %
95 29-11-2019 00:00:00 11.25208 C 72.3542 %
96 30-11-2019 00:00:00 9.66736 C 68.9097 %
97 01-12-2019 00:00:00 8.81806 C 70.1806 %
98 02-12-2019 00:00:00 8.35278 C 70.5417 %
99 03-12-2019 00:00:00 8.74514 C 73.3472 %
100 04-12-2019 00:00:00 8.79375 C 71.8403 %
Sensor: Nr:Datum:Temp:Feuchte:
G-T/H 101 05-12-2019 00:00:00 7.92014 C 69.1458 %
102 06-12-2019 00:00:00 7.57292 C 70.7014 %
103 07-12-2019 00:00:00 8.97014 C 74.4514 %
104 08-12-2019 00:00:00 10.25694 C 75.1667 %
105 09-12-2019 00:00:00 10.48403 C 74.1111 %
106 10-12-2019 00:00:00 9.34028 C 71.5903 %
107 11-12-2019 00:00:00 8.75694 C 73.1250 %
108 12-12-2019 00:00:00 8.81042 C 73.2500 %
109 13-12-2019 00:00:00 8.51944 C 72.1458 %
110 14-12-2019 00:00:00 8.92153 C 73.0764 %
111 15-12-2019 00:00:00 9.56736 C 74.6667 %
112 16-12-2019 00:00:00 9.90486 C 75.1389 %
113 17-12-2019 00:00:00 10.43333 C 75.4583 %
114 18-12-2019 00:00:00 10.925 C 75.4861 %
115 19-12-2019 00:00:00 9.76667 C 73.6667 %
116 20-12-2019 00:00:00 9.69375 C 75.0208 %
117 21-12-2019 00:00:00 10.06458 C 74.5833 %
118 22-12-2019 00:00:00 10.1375 C 75.1528 %
119 23-12-2019 00:00:00 10.30417 C 75.3681 %
120 24-12-2019 00:00:00 10.12639 C 74.9375 %
121 25-12-2019 00:00:00 10.24444 C 75.9653 %
122 26-12-2019 00:00:00 9.92708 C 75.2569 %
123 27-12-2019 00:00:00 9.69444 C 75.5833 %
124 28-12-2019 00:00:00 8.37639 C 70.3194 %
125 29-12-2019 00:00:00 7.21528 C 69.6875 %
Sensor: Nr:Datum:Temp:Feuchte:
G-T/H 126 30-12-2019 00:00:00 7.16944 C 69.0486 %
127 31-12-2019 00:00:00 6.93194 C 69.9722 %
128 01-01-2020 00:00:00 7.23125 C 70.8403 %
129 02-01-2020 00:00:00 7.28958 C 70.5417 %
130 03-01-2020 00:00:00 8.41389 C 73.4792 %
131 04-01-2020 00:00:00 9.12431 C 73.5833 %
132 05-01-2020 00:00:00 9.42917 C 73.5694 %
133 06-01-2020 00:00:00 9.33958 C 72.1181 %
134 07-01-2020 00:00:00 8.74583 C 72.1111 %
135 08-01-2020 00:00:00 9.18611 C 74.0347 %
136 09-01-2020 00:00:00 10.3875 C 76.5556 %
137 10-01-2020 00:00:00 11.02153 C 75.1389 %
138 11-01-2020 00:00:00 10.04097 C 73.2014 %
139 12-01-2020 00:00:00 9.14861 C 72.8958 %
140 13-01-2020 00:00:00 9.30833 C 74.5139 %
141 14-01-2020 00:00:00 9.78958 C 75.6597 %
142 15-01-2020 00:00:00 10.59028 C 75.5972 %
143 16-01-2020 00:00:00 10.82222 C 75.8264 %
144 17-01-2020 00:00:00 9.87847 C 74.9583 %
145 18-01-2020 00:00:00 9.38125 C 74.1597 %
146 19-01-2020 00:00:00 8.86667 C 74.2569 %
147 20-01-2020 00:00:00 8.75 C 73.1111 %
148 21-01-2020 00:00:00 7.77014 C 69.7847 %
149 22-01-2020 00:00:00 7.17083 C 69.5903 %
150 23-01-2020 00:00:00 7.63472 C 70.8611 %
Sensor: Nr:Datum:Temp:Feuchte:
G-T/H 151 24-01-2020 00:00:00 7.71319 C 70.9097 %
152 25-01-2020 00:00:00 7.96806 C 71.5139 %
153 26-01-2020 00:00:00 7.98611 C 72.6597 %
154 27-01-2020 00:00:00 8.21875 C 74.7500 %
155 28-01-2020 00:00:00 8.85833 C 75.1458 %
156 29-01-2020 00:00:00 8.44306 C 74.0000 %
157 30-01-2020 00:00:00 8.61389 C 74.8750 %
158 31-01-2020 00:00:00 10.32431 C 76.3958 %
159 01-02-2020 00:00:00 11.40556 C 76.3681 %
160 02-02-2020 00:00:00 11.15903 C 73.6736 %
161 03-02-2020 00:00:00 11.4875 C 75.0000 %
162 04-02-2020 00:00:00 10.54722 C 71.2847 %
163 05-02-2020 00:00:00 9.47153 C 71.9236 %
164 06-02-2020 00:00:00 8.34306 C 70.5208 %
165 07-02-2020 00:00:00 7.79097 C 69.9167 %
166 08-02-2020 00:00:00 7.33681 C 70.6528 %
167 09-02-2020 00:00:00 8.3 C 73.5694 %
168 10-02-2020 00:00:00 9.82708 C 73.9167 %
169 11-02-2020 00:00:00 9.18194 C 72.2431 %
170 12-02-2020 00:00:00 8.72083 C 72.8750 %
171 13-02-2020 00:00:00 8.20208 C 72.5208 %
172 14-02-2020 00:00:00 8.84653 C 74.7500 %
173 15-02-2020 00:00:00 8.93958 C 73.5903 %
174 16-02-2020 00:00:00 11.3125 C 68.1111 %
175 17-02-2020 00:00:00 11.77708 C 69.2778 %
Sensor: Nr:Datum:Temp:Feuchte:
G-T/H 176 18-02-2020 00:00:00 10.43056 C 67.4028 %
177 19-02-2020 00:00:00 9.94514 C 69.4583 %
178 20-02-2020 00:00:00 9.73472 C 71.6875 %
179 21-02-2020 00:00:00 9.56875 C 71.4931 %
180 22-02-2020 00:00:00 9.25625 C 72.0625 %
181 23-02-2020 00:00:00 10.38403 C 73.7708 %
182 24-02-2020 00:00:00 10.40903 C 71.9792 %
183 25-02-2020 00:00:00 10.88819 C 73.0278 %
184 26-02-2020 00:00:00 10.02917 C 68.9306 %
185 27-02-2020 00:00:00 9.17986 C 71.0208 %
186 28-02-2020 00:00:00 8.31042 C 73.7708 %
187 29-02-2020 00:00:00 9.28125 C 75.1597 %
188 01-03-2020 00:00:00 9.80486 C 74.3403 %
189 02-03-2020 00:00:00 9.67847 C 73.5833 %
190 03-03-2020 00:00:00 9.53681 C 73.3194 %
191 04-03-2020 00:00:00 8.95833 C 73.5139 %
192 05-03-2020 00:00:00 9.15833 C 73.9861 %
193 06-03-2020 00:00:00 9.48958 C 74.9514 %
194 07-03-2020 00:00:00 9.38611 C 74.0556 %
195 08-03-2020 00:00:00 9.99583 C 74.7292 %
196 09-03-2020 00:00:00 10.54861 C 73.8819 %
197 10-03-2020 00:00:00 10.28056 C 73.3819 %
198 11-03-2020 00:00:00 11.72083 C 75.8889 %
199 12-03-2020 00:00:00 12.29653 C 71.3333 %
200 13-03-2020 00:00:00 11.08333 C 68.2014 %
Sensor: Nr:Datum:Temp:Feuchte:
G-T/H 201 14-03-2020 00:00:00 10.32361 C 70.1250 %
202 15-03-2020 00:00:00 10.87153 C 65.1667 %
203 16-03-2020 00:00:00 10.71667 C 66.3819 %
204 17-03-2020 00:00:00 11.47153 C 70.7292 %
205 18-03-2020 00:00:00 11.42569 C 70.3472 %
206 19-03-2020 00:00:00 12.36736 C 67.4583 %
207 20-03-2020 00:00:00 12.53217 C 67.5944 %
208 21-03-2020 00:00:00 11.55903 C 63.9097 %
209 22-03-2020 00:00:00 9.66111 C 61.2292 %
210 23-03-2020 00:00:00 8.67431 C 62.8819 %
211 24-03-2020 00:00:00 8.04028 C 63.8611 %
212 25-03-2020 00:00:00 7.80833 C 63.4722 %
213 26-03-2020 00:00:00 8.04028 C 64.0208 %
214 27-03-2020 00:00:00 9.19722 C 61.4583 %
215 28-03-2020 00:00:00 10.48264 C 59.6944 %
216 29-03-2020 00:00:00 10.14855 C 60.5362 %
217 30-03-2020 00:00:00 8.62708 C 59.5417 %
218 31-03-2020 00:00:00 8.58472 C 62.8194 %
219 01-04-2020 00:00:00 8.20764 C 62.6181 %
220 02-04-2020 00:00:00 8.18194 C 64.4097 %
221 03-04-2020 00:00:00 9.17708 C 61.3125 %
222 04-04-2020 00:00:00 7.05486 C 55.4306 %
223 05-04-2020 00:00:00 9.21944 C 61.8056 %
224 06-04-2020 00:00:00 10.2125 C 63.7569 %
225 07-04-2020 00:00:00 13.11319 C 59.7083 %
Sensor: Nr:Datum:Temp:Feuchte:
G-T/H 226 08-04-2020 00:00:00 13.17153 C 61.2847 %
227 09-04-2020 00:00:00 13.65556 C 60.0069 %
228 10-04-2020 00:00:00 13.73681 C 60.7847 %
229 11-04-2020 00:00:00 13.3125 C 61.3611 %
230 12-04-2020 00:00:00 13.45 C 63.2500 %
231 13-04-2020 00:00:00 13.15556 C 59.7986 %
232 14-04-2020 00:00:00 11.44375 C 58.7847 %
233 15-04-2020 00:00:00 11.16875 C 56.8333 %
234 16-04-2020 00:00:00 11.42917 C 52.3542 %
235 17-04-2020 00:00:00 14.90625 C 55.3958 %
236 18-04-2020 00:00:00 14.63333 C 62.5347 %
237 19-04-2020 00:00:00 14.45833 C 64.6250 %
238 20-04-2020 00:00:00 13.53681 C 59.6042 %
239 21-04-2020 00:00:00 13.28819 C 58.7986 %
240 22-04-2020 00:00:00 13.43958 C 59.4167 %
241 23-04-2020 00:00:00 13.68125 C 59.6181 %
242 24-04-2020 00:00:00 14.95139 C 52.1875 %
243 25-04-2020 00:00:00 14.65694 C 48.8681 %
244 26-04-2020 00:00:00 11.22569 C 54.7014 %
245 27-04-2020 00:00:00 13.14028 C 57.4375 %
246 28-04-2020 00:00:00 13.66528 C 62.0139 %
247 29-04-2020 00:00:00 13.85625 C 64.5486 %
248 30-04-2020 00:00:00 14.0875 C 65.0556 %
249 01-05-2020 00:00:00 13.42361 C 65.1111 %
250 02-05-2020 00:00:00 12.90972 C 65.8542 %
Sensor: Nr:Datum:Temp:Feuchte:
G-T/H 251 03-05-2020 00:00:00 12.50278 C 65.6389 %
252 04-05-2020 00:00:00 13.3096 C 66.6560 %
253 16-08-2020 00:00:00 28.83774 C 49.1132 %
254 17-08-2020 00:00:00 22.89861 C 61.1597 %
255 18-08-2020 00:00:00 21.78472 C 62.2500 %
256 19-08-2020 00:00:00 20.76042 C 62.8056 %
257 20-08-2020 00:00:00 21.42778 C 64.2153 %
258 21-08-2020 00:00:00 23.78681 C 60.8611 %
259 22-08-2020 00:00:00 23.54028 C 51.5833 %
260 23-08-2020 00:00:00 22.34236 C 54.2083 %
261 24-08-2020 00:00:00 21.13958 C 53.8264 %
262 25-08-2020 00:00:00 20.35139 C 56.7569 %
263 26-08-2020 00:00:00 20.64931 C 57.0625 %

Maximal/Minimal-Werte vom 27.08.2019 - 26.08.2020

Sensor Min Max Avg
Temp
(Aussen-T/F)
-5 °C
29-12-2019  07:23:17
44.3 °C
08-08-2020  16:51:17
11.79 °C
Feuchte
(Aussen-T/F)
20 %
27-08-2019  13:08:17
64 %
08-09-2019  03:09:18
31.39 %
Temp
(G-T/H)
4.2 °C
04-04-2020  07:31:18
28.9 °C
16-08-2020  15:23:36
12.03 °C
Feuchte
(G-T/H)
33 %
21-09-2019  16:35:17
83 %
20-10-2019  15:57:17
68.86 %

Die Daten stammen von einer Davis Vantage Pro 2 Wetter-Station und werden unter Linux mit der Software wview2wettercgi und aufbereitet. Alle Angaben erfolgen ohne Gewähr für ihre Vollständigkeit oder Richtigkeit.
Kontakt: Rainer Krienke krienke@uni-koblenz.de . Meine Webseiten an der Uni Koblenz oder privat.
Version: $Revision: 0.78 $